Content
SEND FEEDBACK

Daily
Averages
Monthly
Summary
Malaysia

ALOR SETAR, MALAYSIA


Home > Asia > Malaysia
Elevation: 13 feet     Latitude: 06 11N     Longitude: 100 24E

WEATHER
 
SELECT A DAY
Number of Records: 93,286;   Date Range: 6/24/00 - 9/29/14
 
SHARE

PRINT THIS DATA

[ ← Previous Day ]
WEATHER ALMANAC - MAY 4, 2013
[ Next Day → ]
[ °C ]   °F
Weather ElementAverageHighLow
Temperature82.6 °F91.4 °F (2:00 pm)78.8 °F (2:00 am)
Dewpoint77.5 °F80.6 °F (3:00 pm)75.2 °F (5:00 am)
Humidity85 %94 % (2:00 am)66 % (2:00 pm)
Barometer29.74 in29.80 in (9:00 am)29.65 in (4:00 pm)
Wind Speed3.8 mph11.5 mph (5:00 pm)
Weather ElementAverage
Visibility6.2 mi
Wind DirectionESE (125.5 °)

Weather ElementTotal
Precipitation---
Cooling Degree Days20.1 (Base 65)
Growing Degree Days35.1 (Base 50)
Averaged from 22 records on May 4, 2013
WEATHER CONDITIONS BREAKOUT
WIND DIRECTION BREAKOUT
WEATHER BY HOUR - MAY 4, 2013
[ °C ]   °F
Local TimeTemperatureDewpointHumidityBarometerVisibilityWind DirectionWind SpeedGust SpeedPrecipitationEventsConditions
1:00 AM80.6 °F77.0 °F89 %29.77 in6.2 miEast (80°)2.3 mphMostly Cloudy
2:00 AM78.8 °F77.0 °F94 %29.74 in6.2 miEast (80°)2.3 mphMostly Cloudy
3:00 AM78.8 °F77.0 °F94 %29.74 in6.2 miNE (50°)1.2 mphMostly Cloudy
4:00 AM78.8 °F77.0 °F94 %29.74 in6.2 miENE (70°)2.3 mphMostly Cloudy
5:00 AM78.8 °F75.2 °F89 %29.74 in6.2 miEast (100°)2.3 mphMostly Cloudy
6:00 AM78.8 °F77.0 °F94 %29.74 in6.2 miCalmMostly Cloudy
7:00 AM78.8 °F77.0 °F94 %29.77 in6.2 miSE (140°)2.3 mphMostly Cloudy
8:00 AM78.8 °F77.0 °F94 %29.77 in6.2 miESE (110°)3.5 mphMostly Cloudy
9:00 AM80.6 °F77.0 °F89 %29.80 in6.2 miESE (110°)3.5 mphMostly Cloudy
10:00 AM84.2 °F78.8 °F84 %29.80 in6.2 miEast (100°)2.3 mphMostly Cloudy
11:00 AM86.0 °F78.8 °F79 %29.80 in6.2 miSSW (200°)2.3 mphMostly Cloudy
12:00 PM89.6 °F78.8 °F70 %29.77 in6.2 miSE (140°)4.6 mphMostly Cloudy
1:00 PM89.6 °F78.8 °F70 %29.74 in6.2 miSE (130°)2.3 mphMostly Cloudy
2:00 PM91.4 °F78.8 °F66 %29.71 in6.2 miSouth (190°)3.5 mphMostly Cloudy
3:00 PM89.6 °F80.6 °F75 %29.71 in6.2 miWSW (250°)10.4 mphMostly Cloudy
4:00 PM91.4 °F80.6 °F71 %29.65 in6.2 miWSW (250°)8.1 mphMostly Cloudy
5:00 PM89.6 °F80.6 °F75 %29.65 in6.2 miWest (280°)11.5 mphMostly Cloudy
7:00 PM78.8 °F75.2 °F89 %29.71 in5.6 miNE (50°)8.1 mphRainLight Rain
8:00 PM78.8 °F77.0 °F94 %29.71 in6.2 miSE (140°)2.3 mphRain-ThunderstormLight Thunderstorms and Rain
9:00 PM78.8 °F75.2 °F89 %29.74 in6.2 miEast (90°)4.6 mphMostly Cloudy
10:00 PM78.8 °F75.2 °F89 %29.77 in6.2 miSE (130°)2.3 mphMostly Cloudy
11:00 PM78.8 °F75.2 °F89 %29.80 in6.2 miENE (70°)2.3 mphMostly Cloudy
Hourly data recorded from WMKA, located miles away from Alor Setar, Malaysia







STORIES FROM OUR PARTNERS